Погода Ремязинона неделю

Тверская область, Россия

24 - 30 мая
  • 24мая
    Сегодня
    +8°
    +23°
    Ясно и безоблачно
    ВремяПогодаТемператураВлажностьДавлениеВетер, м/сВероятность осадков
    00:00Небольшая облачность+11°C59 %761 мм0.3 м/с2 %
    03:00Ясно и безоблачно+8°C63 %762 мм0.0 м/с2 %
    06:00Ясно и безоблачно+11°C64 %763 мм0.1 м/с2 %
    09:00Ясно и безоблачно+18°C47 %763 мм1.1 м/с2 %
    12:00Ясно и безоблачно+22°C35 %763 мм0.3 м/с2 %
    15:00Ясно и безоблачно+23°C34 %762 мм0.4 м/с2 %
    18:00Ясно и безоблачно+23°C36 %761 мм0.5 м/с2 %
    21:00Ясно и безоблачно+17°C54 %761 мм0.5 м/с2 %
  • 25мая
    Суббота
    +11°
    +25°
    Ясно и безоблачно
    ВремяПогодаТемператураВлажностьДавлениеВетер, м/сВероятность осадков
    00:00Ясно и безоблачно+12°C58 %761 мм0.6 м/с2 %
    03:00Ясно и безоблачно+9°C67 %761 мм1.7 м/с2 %
    06:00Ясно и безоблачно+11°C68 %761 мм0.4 м/с2 %
    09:00Практически безоблачно+18°C43 %761 мм2.0 м/с2 %
    12:00Ясно и безоблачно+21°C33 %760 мм2.1 м/с2 %
    15:00Ясно и безоблачно+24°C31 %758 мм2.1 м/с2 %
    18:00Ясно и безоблачно+24°C33 %757 мм1.6 м/с2 %
    21:00Ясно и безоблачно+17°C52 %756 мм0.5 м/с2 %
  • 26мая
    Воскресенье
    +5°
    +22°
    Облачно с прояснениями, небольшой дождь
    ВремяПогодаТемператураВлажностьДавлениеВетер, м/сВероятность осадков
    00:00Ясно и безоблачно+13°C63 %756 мм0.7 м/с2 %
    03:00Ясно и безоблачно+11°C74 %756 мм1.4 м/с2 %
    06:00Ясно и безоблачно+14°C73 %756 мм0.2 м/с5 %
    09:00Облачно с прояснениями+18°C63 %756 мм1.4 м/с21 %
    12:00Пасмурно, небольшой дождь+19°C60 %757 мм1.4 м/с57 %
    15:00Облачно с прояснениями, небольшой дождь+20°C60 %757 мм1.8 м/с64 %
    18:00Небольшая облачность+21°C50 %757 мм1.5 м/с35 %
    21:00Практически безоблачно+15°C50 %758 мм1.1 м/с12 %
  • 27мая
    Понедельник
    +5°
    +22°
    Ясно и безоблачно
    ВремяПогодаТемператураВлажностьДавлениеВетер, м/сВероятность осадков
    00:00Ясно и безоблачно+11°C53 %759 мм0.9 м/с2 %
    03:00Ясно и безоблачно+5°C63 %760 мм1.1 м/с2 %
    06:00Ясно и безоблачно+9°C61 %761 мм0.3 м/с2 %
    09:00Практически безоблачно+16°C47 %761 мм1.8 м/с2 %
    12:00Ясно и безоблачно+19°C40 %761 мм1.5 м/с2 %
    15:00Ясно и безоблачно+21°C35 %761 мм0.9 м/с2 %
    18:00Ясно и безоблачно+22°C34 %760 мм0.3 м/с2 %
    21:00Ясно и безоблачно+15°C47 %760 мм0.0 м/с2 %
  • 28мая
    Вторник
    +8°
    +25°
    Ясно и безоблачно
    ВремяПогодаТемператураВлажностьДавлениеВетер, м/сВероятность осадков
    00:00Ясно и безоблачно+11°C59 %760 мм0.1 м/с2 %
    03:00Ясно и безоблачно+6°C78 %760 мм0.3 м/с2 %
    06:00Ясно и безоблачно+11°C67 %760 мм0.0 м/с2 %
    09:00Ясно и безоблачно+19°C47 %760 мм1.2 м/с2 %
    12:00Ясно и безоблачно+23°C36 %759 мм0.9 м/с2 %
    15:00Ясно и безоблачно+25°C34 %758 мм0.7 м/с2 %
    18:00Ясно и безоблачно+24°C35 %757 мм0.3 м/с2 %
    21:00Ясно и безоблачно+18°C61 %757 мм0.1 м/с2 %
Мы используем cookies
Соглашаюсь